Regional Weather Roundup
Issued by NWS Wakefield, VA

Home | Current Version | Previous Version | Text Only | Print | Product List | Glossary Off
Versions: 1 2 3 4 5 6 7 8 9 10 11 12 13 14 15 16 17 18 19 20 21 22 23 24 25 26 27

000
ASUS41 KAKQ 190413
RWRAKQ

REGIONAL WEATHER ROUNDUP
NATIONAL WEATHER SERVICE WAKEFIELD VA
1100 PM EST SAT NOV 18 2017

Note: "fair" indicates few or no clouds below 12,000 feet with no
significant weather and/or obstructions to visibility. * = Denotes
station may not report precipitation (e.g., rain,snow,etc.),
thunder or fog.

VAZ042-051-052>054-056-190500-
NORTHERN VIRGINIA

CITY           SKY/WX    TMP DP  RH WIND       PRES   REMARKS
WASH NATIONAL  CLOUDY    62  50  64 S18G28    29.44F
DULLES         CLOUDY    61  48  62 S20G33    29.41F
FORT BELVOIR   CLOUDY    61  49  62 S8        29.45F
QUANTICO       NOT AVBL
FREDERICKSBRG* CLOUDY    63  51  66 S14G20    29.46F
STAFFORD*      CLOUDY    62  49  63 S9G24     29.50F
WARRENTON      NOT AVBL
CULPEPER*      CLOUDY    63  46  55 S13G20    29.44F
MANASSAS*      CLOUDY    62  49  62 S17G25    29.43F
LEESBURG*      CLOUDY    63  50  63 S17G24    29.41F
WINCHESTER     CLOUDY    57  45  62 S12G23    29.36F
FRONT ROYAL*   CLOUDY    59  46  63 SW6       29.36F
LURAY*         CLOUDY    59  48  67 SW13      29.39F
$$

VAZ048-049-060>072-079>083-190500-
CENTRAL AND SOUTH CENTRAL VIRGINIA

CITY           SKY/WX    TMP DP  RH WIND       PRES   REMARKS
RICHMOND       CLOUDY    62  53  72 S20G25    29.53F
CHESTERFIELD*  NOT AVBL
PETERSBURG*    NOT AVBL
HANOVER        CLOUDY    62  52  69 S17G26    29.52F
TAPPAHANNOCK*    N/A    N/A N/A N/A MISG        N/A
QUINTON*       FAIR      62  55  76 S8        29.54F
CHARLOTTSVILLE CLOUDY    62  48  60 S21G33    29.43F
GORDONSVILLE*  CLOUDY    62  49  64 S15G24    29.43F
ORANGE*        CLOUDY    61  46  59 S15G25    29.45F
LOUISA*          N/A     61  49  63 S10G16      N/A
BUMPASS*       FAIR      62  49  62 S13G21    29.47F
FARMVILLE*     CLOUDY    64  52  65 S10G22    29.49F
CREWE*         FAIR      63  52  67 S8G20     29.51F
FORT PICKETT*  NOT AVBL
CHASE CITY*    FAIR      63  51  64 S7        29.55F
CLARKSVILLE*   FAIR      63  52  67 S16G24    29.55F
SOUTH HILL*    CLOUDY    61  55  79 S18G26    29.63F
LAWRENCEVILLE* FAIR      62  54  76 S10G20    29.58F
EMPORIA*       CLOUDY    61  54  77 SE8       29.61F
$$

VAZ088>098-190500-
SOUTHEAST VIRGINIA

CITY           SKY/WX    TMP DP  RH WIND       PRES   REMARKS
NORFOLK        MOCLDY    63  56  78 S20G29    29.63F
VIRGINIA BEACH NOT AVBL
NORFOLK NAVAL  NOT AVBL
WEST POINT*    CLOUDY    63  53  71 S10G18    29.58F
SALUDA*        FAIR      63  56  78 S12G25    29.57F
NEWPORT NEWS   PTCLDY    63  55  75 S21G28    29.61F
LANGLEY AFB    PTCLDY    62  56  79 S22       29.62F
FORT EUSTIS    CLOUDY    62  56  79 S10       29.58F
WILLIAMSBURG*  PTCLDY    64  55  72 S13G18    29.60F
HR EXEC AP*    NOT AVBL
FRANKLIN*      CLOUDY    62  55  76 S14G20    29.63F
US460-WAKEFLD  PTCLDY    64  56  75 S12G23    29.60F
$$

VAZ020-022-025-037-045-190500-
WEST CENTRAL AND SOUTHWEST VIRGINIA

CITY           SKY/WX    TMP DP  RH WIND       PRES   REMARKS
STAUNTON*      CLOUDY    58  48  67 S13       29.43F
WAYNESBORO*    CLOUDY    59  49  68 S10G23    29.42F
HOT SPRINGS VA CLOUDY    49  48  95 S14G23    29.45F
LYNCHBURG      CLOUDY    60  49  66 SW10      29.50F
DANVILLE       CLOUDY    62  51  67 S12G18    29.54F
SOUTH BOSTON*  FAIR      64  49  56 S15G22    29.53F
MARTINSVILLE   CLOUDY    61  49  64 S12G18    29.54F
ROANOKE        CLOUDY    61  50  67 S12       29.49F
BLACKSBURG     CLOUDY    57  51  81 S6G18     29.51F
DUBLIN*        CLOUDY    58  52  79 S14G23    29.49F
MARION*        RAIN      58  50  75 NW8       29.52R
HILLSVILLE*    CLOUDY    54  51  89 S22G33    29.51F
RICHLANDS*     LGT RAIN  54  22  28 W13G23    29.51R
WISE*          LGT RAIN  54  50  87 W18G26    29.52R
ABINGDON*      LGT RAIN  58  54  86 W14G25    29.53R
$$

MDZ021>025-VAZ099-100-190500-
SOUTHERN MARYLAND AND THE DELMARVA PENINSULA

CITY           SKY/WX    TMP DP  RH WIND       PRES   REMARKS
PATUXENT RIVER NOT AVBL
BAY BRIDGE APT CLOUDY    61  50  67 S16G26    29.47R
LEONARDTOWN    CLOUDY    63  52  67 S13G22    29.52F
DOVER          CLOUDY    61  61  99 S24G36    29.44F
GEORGETOWN     LGT RAIN  64  53  67 SW23G38   29.53F
EASTON         CLOUDY    60  51  72 SW16G24   29.51F
CAMBRIDGE      PTCLDY    59  52  77 SE20      29.51F
SALISBURY      CLOUDY    64  55  72 SW24G38   29.55F
OCEAN CITY     CLOUDY    59  54  83 SW21G36   29.58F
WALLOPS ISLAND CLOUDY    60  55  83 S26G32    29.60F
ACCOMACK*      CLOUDY    62  55  77 S14G20    29.60F
$$

NCZ012>017-030>032-190500-
NORTH CENTRAL AND EASTERN NORTH CAROLINA

CITY           SKY/WX    TMP DP  RH WIND       PRES   REMARKS
ROANOKE RAPIDS   N/A    N/A N/A N/A MISG        N/A
RALEIGH        MOCLDY    62  53  72 SW15G24   29.63F
ELIZABETH CITY PTCLDY    65  58  78 S17G26    29.69F
AHOSKIE*       CLOUDY    62  55  80 S9        29.66F
EDENTON*       PTCLDY    65  56  72 SW15      29.71F
CURRITUCK*     PTCLDY    65  56  75 S12G21    29.69F
KILL DEVIL HLS MOCLDY    64  56  77 SW7       29.71F
MANTEO         MOCLDY    62  57  82 SW17      29.73F
CAPE HATTERAS  CLOUDY    66  62  87 SW13      29.76F
TARBORO*       NOT AVBL
GOLDSBORO      CLEAR     64  54  71 S14       29.67F
WASHINGTON     PTCLDY    66  54  66 SW13G21   29.71F
GREENVILLE     CLOUDY    64  54  68 SW13      29.73F
NEW BERN       PTCLDY    64  56  75 SW13G21   29.75F
WILMINGTON     CLEAR     67  58  72 SW14      29.78F
$$

VAZ048-190500-
ELSEWHERE

CITY           SKY/WX    TMP DP  RH WIND       PRES   REMARKS
HARRISBURG PA  CLOUDY    46  45  96 E3        29.35F
BALTIMORE      CLOUDY    62  49  62 SW17G29   29.41F
ANNAPOLIS      NOT AVBL
ANDREWS AFB    MOCLDY    61  49  62 S23G31    29.44F
PHILADELPHIA   CLOUDY    60  49  66 S20G28    29.43F
HENDERSON NC   PTCLDY    61  49  65 S21G30    29.58F
GREENSBORO     CLOUDY    62  51  67 SW20G29   29.55F
ROCKY MOUNT    MOCLDY    63  55  75 S13G22    29.65F
$$

VAZ100-190500-
MARINE

STATION/POSITION TIME  TEMP    WIND        PRES    WAVE   SWELL
                       AIR SEA DIR/SP/G            HT/PER HT/PER
                 (UTC) (F)     (DEG/KT/KT) (MB)    (FT/S) (FT/S)
15NM E FENWICK I 0350   63 59  190/ 29/ 39 1000.5F   9/ 7
THOMAS POINT MD  0400   60 55  190/ 21/ 22   N/A
CAPE HENRY BUOY  0400      58                N/A     4/ 5
CAPE CHARLES BUO 0351      57                N/A     4/ 5
64NM E OF VA BCH 0350   65 62  210/ 21/ 27 1005.9F   6/ 6
44100 DUCK FRF   0345      61                N/A     3/ 4
44056 DUCK FRF   0400      62                N/A     2/11
DIAMOND SHLS NC  0400   72 66  200/ 27/ 35 1007.8
CAPE LOOKOUT NC  0400          230/ 12/ 18 1008.5F
$$




USA.gov is the U.S. government's official web portal to all federal, state and local government web resources and services.